Home > Weather > Gütersloh > Past weeks

Flag for Germany Weather for the Past 2 Weeks in Gütersloh, North Rhine-Westphalia, Germany

Now
41 °F

Clear.


Feels Like: 41 °F
Forecast: 41 / 54 °F
Wind: 1 mph from North

Location: Paderborn / Lippstadt

Current Time: May 2, 2016 at 3:32:40 AM

Latest Report: May 2, 2016 at 2:50 AM


Visibility: 10 mi

Pressure: 30.30 "Hg

Humidity: 100%

Dew Point: 41 °F

Location of GüterslohLocation

Historic Weather in Gütersloh — Graph

°F

Gütersloh Temperature Yesterday

Maximum temperature yesterday: 59 °F (at 3:50 PM)
Minimum temperature yesterday: 39 °F (at 5:50 AM)
Average temperature yesterday: 49 °F

High & Low Weather Summary for the Past Weeks

 TemperatureHumidityPressure
High63 °F (Apr 21, 2:50 PM)100% (Apr 17, 2:20 AM)30.45 "Hg (Apr 17, 2:20 AM)
Low32 °F (Apr 24, 4:20 PM)30% (Apr 21, 3:50 PM)29.45 "Hg (Apr 26, 10:50 AM)
Average43 °F77%29.98 "Hg
* Reported Apr 17 1:50 AM — May 2 1:50 AM, Gütersloh, Weather by CustomWeather, © 2016

Note: Actual official high and low records may vary slightly from our data, if they occured in-between our weather recording intervals... More about our weather records

Advertising

Gütersloh Weather History for the Previous 24 Hours

Scroll right to see more
 ConditionsComfort  
Time TempWeatherWind HumidityBarometerVisibility
1:50 AM
Mon, May 2
43 °FPassing clouds.3 mph100%30.30 "HgN/A
12:50 AM45 °FClear.3 mph100%30.30 "Hg10 mi
12:20 AM46 °FClear.3 mph93%30.30 "Hg10 mi
11:50 PM
Sun, May 1
46 °FClear.2 mph87%30.30 "Hg10 mi
10:50 PM48 °FClear.1 mph87%30.30 "Hg10 mi
10:20 PM48 °FClear.2 mph87%30.30 "Hg10 mi
9:50 PM50 °FPassing clouds.3 mph82%30.30 "HgN/A
9:20 PM50 °FSunny.2 mph82%30.30 "Hg10 mi
8:50 PM52 °FPassing clouds.5 mph77%30.30 "HgN/A
8:20 PM54 °FPassing clouds.7 mph72%30.27 "HgN/A
7:50 PM57 °FPassing clouds.8 mph63%30.27 "HgN/A
7:20 PM57 °FPassing clouds.7 mph63%30.27 "HgN/A
6:50 PM57 °FScattered clouds.8 mph59%30.27 "HgN/A
6:20 PM59 °FScattered clouds.8 mph59%30.24 "HgN/A
5:50 PM59 °FScattered clouds.8 mph55%30.24 "HgN/A
5:20 PM59 °FScattered clouds.9 mph51%30.24 "HgN/A
4:50 PM59 °FScattered clouds.8 mph59%30.24 "HgN/A
4:20 PM57 °FScattered clouds.10 mph59%30.24 "HgN/A
3:50 PM59 °FScattered clouds.8 mph59%30.24 "HgN/A
3:20 PM57 °FScattered clouds.7 mph63%30.24 "HgN/A
2:50 PM55 °FScattered clouds.9 mph63%30.24 "HgN/A
2:20 PM57 °FScattered clouds.3 mph67%30.24 "HgN/A
1:50 PM55 °FScattered clouds.9 mph63%30.24 "HgN/A
1:20 PM54 °FScattered clouds.8 mph72%30.24 "HgN/A
12:50 PM52 °FBroken clouds.9 mph72%30.24 "HgN/A
12:20 PM52 °FBroken clouds.6 mph77%30.27 "HgN/A
11:50 AM48 °FBroken clouds.6 mph87%30.27 "HgN/A
11:20 AM48 °FBroken clouds.6 mph87%30.24 "HgN/A
10:50 AM46 °FBroken clouds.5 mph87%30.24 "HgN/A
10:20 AM45 °FBroken clouds.5 mph100%30.24 "HgN/A
9:50 AM43 °FPartly sunny.5 mph100%30.24 "HgN/A
8:50 AM41 °FPartly sunny.6 mph100%30.24 "Hg4 mi
8:20 AM41 °FBroken clouds.6 mph93%30.24 "Hg4 mi
7:50 AM39 °FScattered clouds.6 mph100%30.24 "Hg4 mi
7:20 AM39 °FScattered clouds.5 mph100%30.24 "Hg4 mi
6:20 AM39 °FFog.3 mph100%30.21 "Hg2 mi
5:50 AM39 °FFog.3 mph100%30.21 "Hg2 mi
5:20 AM41 °FPassing clouds.3 mph100%30.21 "Hg4 mi
4:20 AM41 °FPassing clouds.5 mph100%30.18 "HgN/A
3:50 AM41 °FLight rain. Passing clouds.6 mph100%30.18 "HgN/A
3:20 AM41 °FLight rain. Passing clouds.5 mph100%30.18 "HgN/A
Weather by CustomWeather, © 2016

See weather overviewHow to use our weather pages